カタログに戻る

DELTA 1 DEB

運用中PO
NORAD 21329·DEBRIS·🇺🇸 United States

打ち上げ Jun 12, 1975 から Vandenberg Space Force Base

Loading…

次のパス (今後24時間)

TLE

最新Source: Space-Track

元期: Sep 14, 2026, 10:10 UTC

1 21329U 75052AX  26257.42363606  .00011616  00000-0  22802-2 0  9999
2 21329  99.6709 322.6128 0103422 102.6789 322.0911 14.59499468781595

AllMySatでDELTA 1 DEBをリアルタイム追跡

Download on the App Store